Погода в Подстране

Хорватия     43°28′57″N   16°35′02″E
темп.,
°C
ветер,
м/с
пор.,
м/с
влажн.,
%
обл.,
%
осадки,
мм/ч
давл.,
гПа
погр.,
м
8 августа, пн
пн823:00+25св555455 0.0 101355
02:00+23св44637 0.0 101371
05:00+22св446323 0.0 101371
08:00+26св33509 0.0 1014170
11:00+30ююз32372 0.0 10141202
14:00+28зюз33453 0.1 1014503
17:00+29всв23441 0.2 1013928
20:00+23св5670100 1.0 1015157
9 августа, вт
вт923:00+20св5574100 1.2 1015114
02:00+20св447198 1.2 101581
05:00+20ссв557470 0.0 101492
08:00+23ссв446393 0.0 1014190
11:00+29юв0243100 0.0 1015718
14:00+28зюз4247100 0.0 1015607
17:00+29зюз3449100 0.0 1013653
20:00+22св5673100 1.4 1015210
10 августа, ср
ср1023:00+22ссв3369100 0.1 101664
02:00+22ссв3373100 0.1 101578
05:00+21св447598 0.0 101495
08:00+24св456169 0.0 1015254
11:00+29св4642100 0.0 1015936
14:00+30с23383 0.0 10141652
17:00+30ссв34399 0.0 10141359
20:00+26св57430 0.0 1015227
11 августа, чт
чт1123:00+23св68470 0.0 1015200
02:00+22св68440 0.0 1015175
05:00+21св68454 0.0 1015176
08:00+23св454144 0.0 1015253
11:00+28св33320 0.0 10151323
14:00+30сз13295 0.0 10141840
17:00+29зсз3532100 0.0 10131881
20:00+25св3442100 0.0 101388
12 августа, пт
пт1223:00+22св4446100 0.0 101472
02:00+20ссв44465 0.0 101371
05:00+19св4346100 0.0 101472
08:00+23св3336100 0.0 1014148
11:00+27юз3230100 0.0 1014884
14:00+27юз433983 0.0 1014801
17:00+26зюз23366 0.0 1014466
20:00+23зсз224011 0.0 101425